Location: Unspecified
(32.9500°S, 0.0000°E)
Time: 00:30:19
(UTC+00:00)

Explorer 11/Cluster Stage 4 - All Passes

Search period start: 04 April 2026 00:00
Search period end: 14 April 2026 00:00
Orbit: 463 x 1175 km, 28.8° (Epoch: 29 March)

Date Brightness Start Highest point End Pass type
(mag) Time Alt. Az. Time Alt. Az. Time Alt. Az.
4 Apr - 03:48:39 10° NNW 03:52:40 26° NNE 03:57:25 10° E visible
4 Apr - 05:34:33 10° WNW 05:39:50 54° N 05:46:19 10° E visible
4 Apr - 07:21:30 10° W 07:27:34 59° N 07:34:47 10° ENE daylight
4 Apr - 09:09:05 10° W 09:15:26 39° NNW 09:22:29 10° NE daylight
4 Apr - 10:58:21 10° WNW 11:03:06 18° NNW 11:07:57 10° N daylight
5 Apr - 03:24:21 10° NNW 03:28:07 25° NNE 03:32:30 10° ENE visible
5 Apr - 05:10:12 10° WNW 05:15:11 53° N 05:21:21 10° E visible
5 Apr - 06:57:03 10° W 07:02:49 58° N 07:09:47 10° ENE daylight
5 Apr - 08:44:33 10° W 08:50:38 38° NNW 08:57:30 10° NE daylight
5 Apr - 10:33:46 10° WNW 10:38:15 17° NNW 10:42:56 10° N daylight
6 Apr - 03:00:04 10° NNW 03:03:34 24° NNE 03:07:37 10° ENE visible
6 Apr - 04:45:52 10° WNW 04:50:35 51° N 04:56:24 10° E visible
6 Apr - 06:32:39 10° W 06:38:07 56° N 06:44:47 10° ENE daylight
6 Apr - 08:20:03 10° W 08:25:50 37° NNW 08:32:29 10° NE daylight
6 Apr - 10:09:15 10° WNW 10:13:27 16° NNW 10:17:52 10° N daylight
7 Apr - 02:35:47 10° NNW 02:39:03 23° NNE 02:42:47 10° ENE visible
7 Apr - 04:21:33 10° WNW 04:25:59 50° N 04:31:28 10° E visible
7 Apr - 06:08:16 10° W 06:13:27 54° N 06:19:47 10° ENE daylight
7 Apr - 07:55:36 10° W 08:01:05 35° NNW 08:07:26 10° NE daylight
7 Apr - 09:44:49 10° WNW 09:48:39 15° NNW 09:52:43 10° N daylight
8 Apr - 02:11:29 10° NNW 02:14:33 21° NNE 02:17:59 10° ENE night (unlit)
8 Apr - 03:57:13 10° WNW 04:01:26 48° N 04:06:34 10° E visible
8 Apr - 05:43:55 10° W 05:48:47 52° N 05:54:48 10° ENE visible
8 Apr - 07:31:12 10° W 07:36:20 33° NNW 07:42:23 10° NE daylight
8 Apr - 09:20:28 10° WNW 09:23:52 14° NNW 09:27:30 10° N daylight
9 Apr - 01:47:09 10° NNW 01:50:03 21° NNE 01:53:15 10° ENE night (unlit)
9 Apr - 03:32:55 10° WNW 03:36:54 46° N 03:41:43 10° E visible
9 Apr - 05:19:35 10° W 05:24:11 50° N 05:29:50 10° ENE visible
9 Apr - 07:06:50 10° WNW 07:11:38 31° NNW 07:17:19 10° NE daylight
9 Apr - 08:56:14 10° NW 08:59:07 13° NNW 09:02:11 10° N daylight
10 Apr - 01:22:48 10° NNW 01:25:34 20° NNE 01:28:34 10° ENE night (unlit)
10 Apr - 03:08:36 10° WNW 03:12:24 45° N 03:16:54 10° E visible
10 Apr - 04:55:16 10° W 04:59:36 48° N 05:04:53 10° ENE visible
10 Apr - 06:42:29 10° WNW 06:46:58 29° NNW 06:52:16 10° NE daylight
10 Apr - 08:32:09 10° NW 08:34:23 12° NNW 08:36:45 10° N daylight
11 Apr - 00:58:24 10° NNW 01:01:06 20° NNE 01:03:57 10° ENE night (unlit)
11 Apr - 02:44:16 10° WNW 02:47:55 44° N 02:52:08 10° E visible
11 Apr - 04:30:57 10° W 04:35:03 46° N 04:39:59 10° ENE visible
11 Apr - 06:18:11 10° WNW 06:22:20 27° NNW 06:27:13 10° NE daylight
11 Apr - 08:08:24 10° NW 08:09:41 11° NNW 08:11:01 10° NNW daylight
12 Apr - 00:33:56 10° NNW 00:36:38 20° NNE 00:39:24 10° ENE night (unlit)
12 Apr - 02:19:54 10° WNW 02:23:26 42° N 02:27:24 10° ENE night (unlit)
12 Apr - 04:06:37 10° WNW 04:10:31 43° N 04:15:07 10° ENE visible
12 Apr - 05:53:53 10° WNW 05:57:43 25° NNW 06:02:11 10° NE visible
13 Apr - 00:09:25 10° NNW 00:12:09 20° NNE 00:14:54 10° ENE night (unlit)
13 Apr - 01:55:31 10° WNW 01:58:59 41° N 02:02:45 10° ENE night (unlit)
13 Apr - 03:42:18 10° WNW 03:46:00 41° N 03:50:18 10° ENE visible
13 Apr - 05:29:37 10° WNW 05:33:08 23° NNW 05:37:10 10° NE visible
13 Apr - 23:44:50 10° NNW 23:47:41 20° NNE 23:50:27 10° ENE night (unlit)
